Regional Weather Roundup
Issued by NWS

Home | Current Version | Previous Version | Text Only | Print | Product List | Glossary Off
Versions: 1 2 3 4 5 6 7 8 9 10 11 12 13 14 15 16 17 18 19 20 21 22 23 24 25 26 27 28 29 30 31 32 33 34 35 36 37 38 39 40 41 42 43 44 45 46 47 48 49 50

000
ASUS43 KIND 230609
RWRIN

WEATHER ROUNDUP FOR INDIANA
NATIONAL WEATHER SERVICE INDIANAPOLIS IN
200 AM EDT WED JUL 23 2014

NOTE: "FAIR" INDICATES FEW OR NO CLOUDS BELOW 12,000 FEET WITH NO
SIGNIFICANT WEATHER AND/OR OBSTRUCTIONS TO VISIBILITY.

* - STATION DOES NOT REPORT WEATHER SUCH AS PRECIPITATION OR FOG.

+ - STATION NOT QUALITY CONTROLLED BY THE NATIONAL WEATHER SERVICE.
    USE DATA WITH CAUTION...ESPECIALLY DEWPOINT AND RELATIVE
    HUMIDITY OBSERVATIONS.

INZ001>003-010>013-019-020-230700-
NORTHWEST INDIANA

CITY           SKY/WX    TMP DP  RH WIND       PRES   REMARKS
GARY /AIRPORT/ CLOUDY    73  70  92 N3        30.01S
KNOX *+        PTCLDY    76  69  80 S3        29.99R
LA PORTE +     MOCLDY    76  68  75 N16G22    30.03R
6HR MIN TEMP:  74; 6HR MAX TEMP:  81;

MICHIGAN CITY+ HVY RAIN  70  61  73 S8        30.03R
MONTICELLO +   CLOUDY    74  70  89 SW5       30.01S
RENSSELAER +   MOCLDY    73  72  94 S5        30.00S FOG
VALPARAISO     LGT RAIN  75  73  93 NW9       30.01R
6HR MIN TEMP:  75; 6HR MAX TEMP:  83; 6HR PCP: TRACE;


$$

LMZ046-743>745-230700-
SOUTHERN LAKE MICHIGAN

STATION/POSITION TIME  TEMP WIND        PRES
                       AIR  DIR/SP/G
                 (UTC) (F)  (DEG/KT/KT) (MB)
BURNS HARBOR     0500   77   10/ 19/ 22 1016.3R
MICHIGAN CITY    0600   72  250/ 16/ 22   N/A

$$

INZ004-005-014>016-021>024-230700-
NORTH CENTRAL INDIANA

CITY           SKY/WX    TMP DP  RH WIND       PRES   REMARKS
GOSHEN         MOCLDY    78  65  63 N22G29    30.05R
6HR MIN TEMP:  76; 6HR MAX TEMP:  85;

LOGANSPORT +   CLOUDY    72  68  88 CALM      30.03S
PERU/GRISSOM   MOCLDY    74  74 100 SW9       30.02S
6HR MIN TEMP:  73; 6HR MAX TEMP:  83;

ROCHESTER +    PTCLDY    77  70  78 SW5       30.02R
SOUTH BEND     RAIN      73  64  73 N9G28     30.03R
6HR MIN TEMP:  73; 6HR MAX TEMP:  84; 6HR PCP:  0.01;

WARSAW +       PTCLDY    77  70  78 W6        30.02R

$$

INZ006>009-017-018-025>027-230700-
NORTHEAST INDIANA

CITY           SKY/WX    TMP DP  RH WIND       PRES   REMARKS
ANGOLA *+      MOCLDY    79  70  73 NW7       30.03R
AUBURN +       PTCLDY    77  68  73 W6        30.01S
FORT WAYNE     CLOUDY    78  69  73 W9        30.02S
6HR MIN TEMP:  75; 6HR MAX TEMP:  86;

HUNTINGTON +   CLOUDY    76  70  80 W7        30.02R
6HR MIN TEMP:  75; 6HR MAX TEMP:  83;


$$

INZ028-029-035-036-043>045-051>053-230700-
WEST CENTRAL INDIANA

CITY           SKY/WX    TMP DP  RH WIND       PRES   REMARKS
GREENCASTLE +  CLEAR     72  68  88 CALM      30.03F
LAFAYETTE      CLOUDY    73  70  90 CALM      30.01R
6HR MIN TEMP:  73; 6HR MAX TEMP:  83;

TERRE HAUTE    CLEAR     72  68  87 S3        30.02F
6HR MIN TEMP:  71; 6HR MAX TEMP:  84;


$$

INZ030>032-037>040-046>048-054>057-064-065-230700-
CENTRAL INDIANA

CITY           SKY/WX    TMP DP  RH WIND       PRES   REMARKS
CP ATTERBURY + PTCLDY    70  68  94 CALM      30.04S FOG
GREENWOOD *+   PTCLDY    75  72  88 CALM      30.04F
INDIANAPOLIS   MOCLDY    73  68  84 W6        30.02F
6HR MIN TEMP:  73; 6HR MAX TEMP:  83;

-EAGLE CREEK   CLEAR     75  68  78 SW5       30.02F
6HR MIN TEMP:  74; 6HR MAX TEMP:  83;

KOKOMO *+      PTCLDY    75  70  83 W6        30.03S
MARION +       MOCLDY    72  67  84 W5        30.03F
MT COMFORT *+  PTCLDY    72  72 100 W5        30.04S
SHELBYVILLE    PTCLDY    74  68  81 CALM      30.03S
6HR MIN TEMP:  72; 6HR MAX TEMP:  84;

ZIONSVILLE +   CLEAR     74  67  79 CALM      30.05R
6HR MIN TEMP:  73; 6HR MAX TEMP:  84;


$$

INZ033-034-041-042-049-050-058-059-230700-
EAST CENTRAL INDIANA

CITY           SKY/WX    TMP DP  RH WIND       PRES   REMARKS
MUNCIE         CLEAR     75  66  73 SW5       30.04R
6HR MIN TEMP:  75; 6HR MAX TEMP:  85;


$$

INZ060-061-067>069-081>083-085>088-230700-
SOUTHWEST INDIANA

CITY           SKY/WX    TMP DP  RH WIND       PRES   REMARKS
EVANSVILLE     CLEAR     76  70  82 CALM      30.04S
6HR MIN TEMP:  76; 6HR MAX TEMP:  89;

HUNTINGBURG *+ CLEAR     72  68  88 CALM      30.04S
6HR MIN TEMP:  72; 6HR MAX TEMP:  88;

WASHINGTON +   CLEAR     70  69  98 CALM      30.03S
6HR MIN TEMP:  69; 6HR MAX TEMP:  84;


$$

INZ062-063-066-070>080-084-089>092-230700-
SOUTH CENTRAL AND SOUTHEAST INDIANA

CITY           SKY/WX    TMP DP  RH WIND       PRES   REMARKS
BLOOMINGTON    PTCLDY    72  68  87 CALM      30.05R
6HR MIN TEMP:  69; 6HR MAX TEMP:  83;


$$



USA.gov is the U.S. government's official web portal to all federal, state and local government web resources and services.